EST,Max TemperatureF,Mean TemperatureF,Min TemperatureF,Max Dew PointF,MeanDew PointF,Min DewpointF,Max Humidity, Mean Humidity, Min Humidity, Max Sea Level PressureIn, Mean Sea Level PressureIn, Min Sea Level PressureIn, Max VisibilityMiles, Mean VisibilityMiles, Min VisibilityMiles, Max Wind SpeedMPH, Mean Wind SpeedMPH, Max Gust SpeedMPH,PrecipitationIn, CloudCover, Events, WindDirDegrees
2012-11-1,53,46,38,37,32,21,92,62,32,29.87,29.84,29.81,10,9,6,16,7,23,T,7,Rain,241
2012-11-2,55,47,39,30,28,25,64,51,38,30.08,29.94,29.83,10,10,10,14,6,20,0.00,4,,324
2012-11-3,50,39,28,39,33,27,93,72,50,30.19,30.12,30.08,10,10,4,9,2,12,0.17,3,Rain,55
2012-11-4,51,45,38,38,33,29,92,68,44,30.14,30.11,30.08,10,10,10,8,4,14,0.00,6,,16
2012-11-5,48,39,30,32,29,26,96,71,45,30.19,30.14,30.10,10,9,4,9,2,13,0.00,3,,63
2012-11-6,55,42,29,33,29,26,92,68,44,30.09,30.00,29.90,10,10,10,8,3,13,0.00,3,,35
2012-11-7,57,48,39,36,32,27,85,60,35,30.06,29.93,29.87,10,10,9,10,3,15,0.00,3,,333
2012-11-8,52,41,29,31,29,27,85,62,39,30.24,30.17,30.07,10,10,7,9,2,13,0.00,0,,336
2012-11-9,59,44,28,35,31,26,92,65,37,30.31,30.23,30.19,10,10,10,9,2,14,0.00,0,,152
2012-11-10,73,56,38,37,34,33,85,55,25,30.30,30.23,30.19,10,10,9,12,3,28,0.00,0,,197
2012-11-11,72,55,37,43,36,28,92,57,22,30.36,30.25,30.17,10,10,9,15,4,23,0.00,0,,163
2012-11-12,69,52,35,54,44,31,93,69,44,30.43,30.18,30.02,10,8,3,21,8,31,0.16,5,Rain,220
2012-11-13,47,38,28,31,26,23,100,71,42,30.51,30.47,30.43,10,10,7,8,3,13,0.00,0,,296
2012-11-14,45,36,27,27,26,23,85,67,49,30.53,30.45,30.35,10,10,10,12,4,17,0.00,0,,40
2012-11-15,52,40,27,30,28,25,92,67,41,30.37,30.33,30.29,10,10,7,7,2,8,0.00,0,,348
2012-11-16,54,42,29,31,29,27,92,64,35,30.47,30.40,30.33,10,8,4,8,2,10,0.00,0,,14
2012-11-17,58,44,29,32,29,26,100,65,30,30.54,30.49,30.45,10,9,5,9,3,14,0.00,0,,39
2012-11-18,60,44,27,31,28,25,92,62,32,30.49,30.43,30.39,10,10,10,9,3,14,0.00,0,,65
2012-11-19,59,44,29,36,32,28,92,68,43,30.38,30.31,30.20,10,10,9,29,1,29,0.00,0,,57
2012-11-20,63,49,35,37,34,31,92,62,32,30.19,30.14,30.08,10,10,7,6,1,18,0.00,3,,65
2012-11-21,63,49,35,36,34,31,92,62,32,30.23,30.19,30.12,10,10,8,7,1,10,0.00,0,,50
2012-11-22,65,48,31,36,33,30,92,63,34,30.26,30.18,30.06,10,10,7,9,3,13,0.00,0,,180
2012-11-23,55,45,34,46,36,22,60,51,41,30.14,30.01,29.95,10,9,1,17,9,29,0.02,4,Rain-Snow,250
2012-11-24,34,31,28,21,19,18,63,57,51,30.22,30.18,30.14,10,9,9,15,6,18,T,8,Snow,285
2012-11-25,50,38,25,23,19,17,75,52,29,30.15,30.05,29.95,10,10,10,14,5,21,0.00,0,,207
2012-11-26,56,43,30,38,27,21,72,54,35,30.20,30.14,30.05,10,10,5,9,2,13,0.09,3,Rain,200
2012-11-27,42,39,36,39,34,30,93,85,76,30.33,30.26,30.17,8,6,3,13,3,15,0.18,8,Rain,354
2012-11-28,45,36,26,30,26,20,92,65,37,30.44,30.39,30.32,10,9,5,13,4,18,0.00,2,,243
2012-11-29,51,36,21,30,25,21,96,66,36,30.45,30.38,30.30,10,9,4,8,1,10,0.00,0,,173
2012-11-30,58,43,28,35,31,26,92,68,43,30.33,30.27,30.21,10,10,10,14,4,18,0.00,0,,184